Precipitable_Water
0.19 0.20 0.20 0.19 0.19 0.19 0.18 0.18 0.15 0.16 0.16 0.18 0.17 0.18 0.19 0.21 0.22 0.24 0.26 0.27 0.28 0.29 0.33 0.31 0.30 0.30 0.28 0.28 0.28 0.27 0.25 0.19 0.15 0.14 0.13 0.12 0.13 0.16 0.25 0.29 0.32 0.34 0.35 0.37
0.15 0.17 0.16 0.15 0.17 0.17 0.17 0.17 0.17 0.18 0.17 0.22 0.22 0.23 0.23 0.25 0.25 0.24 0.27 0.30 0.32 0.34 0.36 0.34 0.32 0.31 0.29 0.28 0.28 0.28 0.25 0.21 0.17 0.14 0.12 0.11 0.12 0.15 0.22 0.29 0.32 0.35 0.37 0.38
0.09 0.12 0.12 0.11 0.15 0.17 0.18 0.19 0.19 0.15 0.20 0.24 0.22 0.24 0.26 0.29 0.31 0.30 0.28 0.29 0.30 0.33 0.32 0.33 0.32 0.32 0.29 0.29 0.29 0.28 0.26 0.23 0.17 0.13 0.11 0.11 0.11 0.15 0.19 0.26 0.32 0.34 0.38 0.39
0.09 0.10 0.06 0.13 0.18 0.18 0.17 0.19 0.20 0.20 0.22 0.25 0.26 0.29 0.30 0.33 0.29 0.26 0.26 0.27 0.27 0.31 0.32 0.32 0.33 0.33 0.31 0.29 0.28 0.28 0.26 0.23 0.18 0.13 0.11 0.11 0.11 0.14 0.18 0.24 0.28 0.33 0.37 0.39
0.09 0.08 0.09 0.12 0.14 0.14 0.13 0.13 0.18 0.19 0.20 0.21 0.24 0.27 0.28 0.29 0.29 0.27 0.26 0.27 0.29 0.29 0.29 0.31 0.31 0.31 0.30 0.28 0.28 0.29 0.26 0.24 0.18 0.13 0.12 0.10 0.10 0.12 0.17 0.22 0.26 0.29 0.38 0.39
0.09 0.07 0.06 0.11 0.16 0.16 0.16 0.10 0.19 0.19 0.19 0.20 0.21 0.17 0.20 0.27 0.27 0.27 0.28 0.29 0.30 0.31 0.28 0.30 0.31 0.32 0.29 0.27 0.27 0.29 0.27 0.23 0.19 0.15 0.13 0.10 0.11 0.12 0.17 0.22 0.24 0.26 0.33 0.40
0.08 0.07 0.10 0.15 0.16 0.14 0.08 0.09 0.15 0.17 0.18 0.18 0.18 0.21 0.23 0.26 0.26 0.28 0.29 0.29 0.31 0.33 0.33 0.31 0.35 0.31 0.28 0.27 0.26 0.29 0.28 0.24 0.20 0.16 0.13 0.11 0.12 0.14 0.15 0.18 0.22 0.23 0.28 0.38
0.07 0.06 0.06 0.14 0.13 0.10 0.13 0.17 0.17 0.17 0.18 0.18 0.20 0.23 0.23 0.23 0.24 0.27 0.28 0.27 0.30 0.32 0.33 0.33 0.35 0.30 0.28 0.27 0.27 0.29 0.29 0.24 0.20 0.17 0.14 0.12 0.12 0.13 0.13 0.16 0.18 0.21 0.24 0.30
0.11 0.09 0.13 0.15 0.15 0.17 0.19 0.18 0.19 0.19 0.20 0.20 0.19 0.19 0.20 0.20 0.22 0.24 0.26 0.28 0.31 0.31 0.32 0.31 0.34 0.30 0.28 0.27 0.28 0.29 0.29 0.24 0.21 0.19 0.16 0.13 0.13 0.12 0.12 0.13 0.16 0.19 0.21 0.25
0.12 0.12 0.15 0.16 0.18 0.20 0.22 0.21 0.22 0.23 0.22 0.21 0.19 0.20 0.19 0.19 0.21 0.22 0.26 0.29 0.31 0.31 0.30 0.30 0.31 0.30 0.30 0.28 0.29 0.30 0.28 0.25 0.22 0.20 0.18 0.14 0.14 0.14 0.12 0.12 0.13 0.17 0.19 0.20
0.13 0.14 0.17 0.18 0.19 0.22 0.22 0.23 0.23 0.24 0.24 0.23 0.22 0.22 0.22 0.22 0.24 0.27 0.30 0.31 0.32 0.30 0.31 0.32 0.31 0.30 0.31 0.29 0.29 0.30 0.28 0.26 0.23 0.21 0.18 0.15 0.14 0.13 0.14 0.13 0.14 0.14 0.18 0.19
0.12 0.17 0.17 0.17 0.21 0.23 0.23 0.22 0.23 0.23 0.23 0.24 0.24 0.24 0.25 0.26 0.29 0.30 0.30 0.31 0.31 0.31 0.32 0.33 0.34 0.30 0.31 0.30 0.31 0.30 0.28 0.25 0.24 0.22 0.20 0.16 0.14 0.13 0.14 0.15 0.14 0.14 0.17 0.18
0.17 0.20 0.20 0.19 0.21 0.23 0.23 0.23 0.24 0.24 0.24 0.24 0.25 0.26 0.27 0.27 0.29 0.31 0.31 0.31 0.30 0.31 0.32 0.32 0.33 0.31 0.32 0.30 0.33 0.30 0.28 0.25 0.24 0.23 0.21 0.18 0.16 0.14 0.12 0.13 0.15 0.13 0.12 0.15
0.22 0.21 0.17 0.18 0.18 0.23 0.23 0.23 0.24 0.23 0.24 0.25 0.26 0.26 0.27 0.28 0.29 0.29 0.29 0.30 0.31 0.31 0.31 0.31 0.32 0.31 0.31 0.33 0.32 0.30 0.28 0.27 0.25 0.23 0.21 0.19 0.18 0.15 0.14 0.12 0.12 0.12 0.13 0.12
0.21 0.20 0.19 0.19 0.19 0.19 0.20 0.21 0.19 0.20 0.23 0.24 0.26 0.26 0.26 0.27 0.27 0.28 0.29 0.30 0.31 0.30 0.30 0.30 0.30 0.31 0.32 0.33 0.32 0.30 0.28 0.25 0.24 0.23 0.22 0.20 0.19 0.18 0.16 0.14 0.13 0.13 0.14 0.12
0.18 0.15 0.17 0.18 0.18 0.17 0.18 0.17 0.17 0.18 0.20 0.23 0.24 0.25 0.26 0.24 0.25 0.25 0.26 0.27 0.26 0.27 0.29 0.29 0.29 0.30 0.31 0.31 0.30 0.28 0.27 0.25 0.24 0.23 0.22 0.20 0.19 0.18 0.17 0.15 0.14 0.14 0.14 0.13
0.13 0.09 0.11 0.14 0.18 0.18 0.18 0.18 0.18 0.18 0.19 0.20 0.21 0.24 0.26 0.25 0.24 0.23 0.23 0.24 0.25 0.25 0.27 0.28 0.28 0.30 0.30 0.30 0.28 0.26 0.25 0.26 0.24 0.23 0.22 0.20 0.19 0.18 0.17 0.16 0.15 0.14 0.15 0.16
0.12 0.12 0.12 0.12 0.12 0.14 0.17 0.19 0.19 0.19 0.19 0.20 0.20 0.21 0.22 0.22 0.22 0.22 0.23 0.23 0.23 0.24 0.25 0.25 0.27 0.28 0.28 0.28 0.27 0.25 0.24 0.24 0.23 0.22 0.21 0.20 0.19 0.18 0.17 0.16 0.15 0.15 0.14 0.14
0.10 0.10 0.11 0.11 0.12 0.12 0.12 0.14 0.17 0.19 0.20 0.20 0.20 0.20 0.20 0.20 0.20 0.21 0.21 0.21 0.21 0.21 0.22 0.24 0.25 0.23 0.23 0.23 0.22 0.22 0.22 0.21 0.21 0.20 0.20 0.21 0.19 0.18 0.17 0.16 0.16 0.15 0.15 0.14
0.09 0.09 0.09 0.10 0.10 0.11 0.11 0.12 0.13 0.15 0.17 0.20 0.20 0.20 0.19 0.19 0.20 0.19 0.20 0.19 0.19 0.19 0.22 0.21 0.20 0.21 0.22 0.22 0.20 0.19 0.18 0.18 0.18 0.18 0.18 0.18 0.18 0.17 0.17 0.17 0.16 0.15 0.14 0.13
0.08 0.08 0.09 0.09 0.09 0.10 0.11 0.12 0.12 0.12 0.14 0.16 0.18 0.19 0.19 0.19 0.20 0.20 0.19 0.18 0.20 0.22 0.22 0.20 0.20 0.21 0.22 0.21 0.19 0.17 0.16 0.16 0.16 0.17 0.17 0.16 0.16 0.15 0.15 0.15 0.15 0.14 0.13 0.12
0.08 0.08 0.08 0.09 0.09 0.09 0.10 0.11 0.12 0.12 0.12 0.13 0.15 0.16 0.18 0.19 0.19 0.19 0.20 0.19 0.21 0.21 0.20 0.20 0.20 0.21 0.20 0.19 0.18 0.17 0.16 0.16 0.16 0.16 0.15 0.15 0.15 0.14 0.14 0.13 0.12 0.12 0.12 0.13
0.08 0.08 0.09 0.09 0.09 0.09 0.10 0.11 0.11 0.12 0.12 0.12 0.13 0.14 0.14 0.16 0.18 0.18 0.17 0.20 0.20 0.19 0.18 0.19 0.20 0.21 0.19 0.17 0.16 0.16 0.15 0.15 0.15 0.15 0.14 0.14 0.13 0.13 0.12 0.12 0.12 0.13 0.13 0.12
0.08 0.08 0.09 0.09 0.09 0.09 0.08 0.09 0.11 0.12 0.12 0.12 0.13 0.14 0.14 0.14 0.15 0.17 0.20 0.20 0.21 0.21 0.21 0.20 0.21 0.20 0.18 0.16 0.15 0.14 0.14 0.14 0.13 0.13 0.13 0.13 0.11 0.10 0.11 0.12 0.13 0.13 0.13 0.13
0.08 0.09 0.09 0.08 0.08 0.09 0.09 0.10 0.10 0.11 0.11 0.11 0.12 0.13 0.14 0.15 0.14 0.15 0.16 0.17 0.19 0.19 0.18 0.19 0.18 0.17 0.16 0.14 0.14 0.14 0.13 0.12 0.11 0.10 0.10 0.11 0.12 0.12 0.12 0.12 0.12 0.13 0.12 0.12
0.08 0.09 0.09 0.09 0.09 0.09 0.10 0.10 0.09 0.10 0.10 0.10 0.11 0.12 0.13 0.14 0.14 0.14 0.15 0.15 0.15 0.15 0.14 0.14 0.14 0.13 0.13 0.13 0.12 0.12 0.11 0.11 0.12 0.12 0.12 0.12 0.11 0.11 0.12 0.12 0.12 0.11 0.11 0.12
0.09 0.09 0.08 0.08 0.09 0.09 0.10 0.10 0.09 0.09 0.10 0.10 0.10 0.11 0.11 0.12 0.12 0.12 0.13 0.13 0.13 0.13 0.13 0.12 0.11 0.10 0.10 0.10 0.10 0.11 0.12 0.12 0.12 0.11 0.11 0.11 0.11 0.11 0.11 0.11 0.11 0.12 0.12 0.12
Wind_Speed
27 25 25 27 27 24 25 26 26 24 27 25 26 27 27 23 21 21 20 19 20 21 22 23 24 24 24 24 23 23 23 24 25 26 27 29 31 34 35 38 40 42 43 43
23 24 25 26 23 25 26 28 29 30 32 27 24 20 20 20 18 18 18 19 20 22 22 22 23 24 23 23 23 22 23 23 24 25 26 28 30 32 34 36 37 38 38 40
22 20 21 19 19 16 17 14 18 19 23 23 20 19 19 19 17 16 16 17 19 20 21 22 22 23 23 23 22 22 22 22 23 23 25 27 29 30 32 34 35 34 36 39
13 13 12 11 11 15 17 14 13 15 13 15 18 19 19 18 17 17 18 18 19 20 21 21 21 22 22 22 22 21 21 21 21 22 24 26 27 29 30 31 31 31 35 37
9 11 12 10 14 15 17 17 13 16 19 21 21 21 19 19 19 21 21 20 20 21 20 21 21 21 21 22 21 21 21 20 20 21 22 24 26 27 28 28 28 30 32 33
8 9 9 11 16 20 16 16 14 20 22 24 24 24 24 23 24 24 23 22 22 21 21 21 22 22 22 21 21 21 20 19 18 19 20 22 24 25 25 25 25 28 28 28
8 8 7 11 15 17 11 18 25 26 26 27 27 28 28 28 27 26 25 24 23 22 21 22 21 22 22 21 21 20 19 18 17 17 18 20 21 22 22 23 23 25 24 22
9 9 8 17 16 12 16 21 25 27 28 30 30 29 29 29 28 26 26 26 24 23 22 22 21 21 22 22 21 19 18 17 16 16 16 17 18 20 21 20 19 21 20 19
7 11 17 17 18 17 18 23 24 27 28 29 30 32 31 30 30 28 28 26 25 23 22 22 22 21 21 21 20 19 17 16 15 14 14 15 16 18 19 19 16 17 17 15
13 14 16 17 15 16 19 21 24 25 26 25 25 26 29 30 29 28 27 25 23 23 22 21 21 21 21 20 19 18 17 16 14 13 13 13 13 15 17 18 16 14 15 13
13 16 21 14 19 20 21 22 23 23 21 19 18 19 21 22 24 24 23 22 21 21 21 20 20 20 20 19 19 18 17 16 14 13 12 11 12 12 14 15 16 13 13 11
18 22 21 23 22 21 20 22 22 21 19 16 14 14 15 15 16 18 19 19 20 20 20 19 20 20 19 19 19 18 16 15 14 12 11 10 10 10 11 12 14 15 11 10
23 24 24 26 23 21 20 21 20 19 18 15 13 13 13 13 13 15 15 17 18 18 18 18 18 18 18 18 18 17 16 15 14 12 10 10 9 8 8 9 11 13 13 10
27 27 27 24 24 23 19 20 19 18 16 14 13 12 11 11 11 11 11 12 14 15 16 16 16 16 17 17 17 16 15 14 13 12 11 10 9 8 7 7 8 10 12 11
29 30 26 26 24 21 21 19 19 17 15 14 12 11 10 9 7 8 8 9 9 10 11 13 15 15 16 17 17 16 15 14 13 13 11 10 9 8 8 7 6 7 8 11
33 29 25 23 23 21 20 19 18 16 15 13 12 11 10 8 7 7 7 6 6 7 8 10 12 13 14 15 16 15 15 15 14 13 12 11 10 9 8 7 7 7 7 7
31 28 26 25 23 22 21 20 18 17 16 15 14 13 12 9 8 8 7 7 6 6 7 8 9 11 12 13 14 15 15 14 14 13 13 12 11 10 10 9 8 7 7 6
28 27 27 25 25 24 22 21 20 19 18 17 16 16 14 12 12 11 10 9 8 8 7 8 9 10 11 12 12 13 13 13 13 13 13 12 12 11 10 10 9 9 8 8
29 28 27 26 25 25 23 22 21 20 19 19 18 18 16 16 16 15 14 14 13 12 11 10 10 11 11 12 12 13 13 13 13 13 13 13 12 12 12 11 11 10 10 10
29 28 27 27 27 25 24 23 22 20 19 19 18 17 18 18 17 17 16 16 15 14 14 13 13 13 13 13 13 13 14 14 14 14 14 14 14 14 13 13 12 12 12 11
29 28 28 28 28 27 25 24 22 21 20 18 16 16 17 17 16 16 15 15 15 15 15 15 16 15 15 14 14 14 14 15 15 15 15 15 15 15 15 15 15 14 14 13
29 28 29 29 29 27 26 24 22 20 19 17 16 15 14 14 15 15 16 16 16 15 16 16 16 17 16 16 16 16 16 16 16 16 16 16 16 16 15 15 15 15 15 15
29 29 29 29 29 28 26 24 22 20 18 16 15 14 14 14 13 13 14 15 16 16 17 17 18 17 16 16 17 17 17 16 16 16 16 16 17 17 17 16 16 16 16 16
29 29 29 29 28 27 26 24 22 20 18 16 15 14 13 13 12 12 13 13 13 13 14 15 14 17 18 18 18 18 18 18 18 18 18 17 18 17 17 17 17 17 17 18
28 29 29 29 27 26 26 24 23 20 19 16 15 14 13 13 13 13 12 11 12 13 13 13 15 16 17 17 17 18 18 18 18 18 17 17 17 17 17 18 18 19 20 20
28 28 28 28 27 27 26 25 23 22 19 17 16 15 14 14 14 14 15 15 16 16 16 16 15 16 16 16 16 16 15 15 15 15 15 16 16 17 18 19 20 21 22 23
28 29 28 28 28 28 27 25 24 22 19 17 16 15 15 15 15 16 16 17 17 18 18 18 17 17 16 16 15 14 14 14 14 14 14 15 16 17 18 19 20 21 23 24
Wind_Direction
267 273 271 271 270 262 257 260 259 267 263 266 266 267 271 268 267 264 265 266 260 261 260 258 254 254 255 258 263 267 272 277 283 287 290 292 296 301 302 303 305 306 305 304
268 269 270 271 278 272 262 263 265 267 270 270 268 262 267 267 264 266 267 269 269 268 263 259 255 254 254 257 262 267 272 278 285 289 293 296 300 304 305 306 308 309 310 309
267 270 272 265 275 276 271 274 267 266 267 264 264 266 261 262 260 265 271 274 276 273 265 258 255 253 255 256 261 267 272 278 286 292 297 301 304 307 309 310 311 311 314 316
275 279 268 238 291 278 279 271 287 286 288 270 264 266 263 248 254 268 273 277 281 278 267 260 256 254 255 256 259 265 271 278 286 294 300 305 308 311 311 313 314 315 319 322
282 275 266 283 294 293 283 268 278 289 284 278 273 262 252 250 259 272 273 275 280 280 270 261 256 254 253 255 259 264 271 276 286 295 303 309 312 314 314 315 317 320 324 329
311 291 281 286 294 298 275 265 280 297 286 282 275 260 256 259 270 271 272 275 280 281 272 263 258 254 253 256 258 262 267 274 284 295 304 311 316 319 317 318 321 325 330 335
317 306 289 319 315 306 278 271 292 290 284 279 267 260 261 266 266 266 268 272 275 278 272 263 260 252 253 255 256 259 264 271 282 295 305 313 320 324 321 319 323 332 335 343
327 321 305 322 312 312 290 295 295 289 288 279 270 263 261 262 264 265 267 270 270 271 271 263 258 252 251 252 254 254 260 267 278 292 304 314 323 330 330 323 324 332 337 347
335 320 312 308 301 298 299 301 301 296 293 285 271 262 264 262 262 263 265 266 265 266 266 261 255 251 250 250 248 249 255 262 273 287 301 311 323 332 336 332 327 331 337 343
348 336 332 322 320 320 317 309 309 307 298 291 280 265 264 263 260 261 261 260 260 262 262 259 254 249 248 246 244 246 250 256 267 280 296 307 316 329 340 341 333 328 334 341
338 336 332 332 321 319 319 319 319 316 314 304 286 274 265 265 260 257 255 255 257 258 258 255 253 247 244 242 240 243 246 251 260 272 288 301 312 320 334 345 348 335 332 333
339 331 327 322 321 319 318 322 323 323 320 315 301 288 277 271 264 256 254 256 256 256 256 253 250 245 240 238 237 239 242 247 254 263 279 292 304 315 328 344 351 353 338 338
331 326 322 322 315 316 317 321 323 325 320 315 310 300 288 278 269 265 258 257 257 256 254 249 245 241 236 233 235 236 239 243 249 256 267 282 293 304 315 333 349 356 359 344
331 329 323 323 319 312 311 317 319 320 318 316 313 308 297 289 277 269 263 263 263 256 250 245 239 235 232 230 232 233 236 239 245 251 260 269 281 291 300 315 333 346 356 0
336 332 324 323 319 314 312 313 315 316 315 313 314 313 307 297 290 282 278 277 269 256 246 239 233 232 231 229 229 231 234 239 243 249 255 262 268 275 284 296 312 329 341 354
334 334 333 330 326 321 316 313 311 311 310 307 309 309 308 295 294 297 294 289 275 260 246 238 233 230 228 226 227 230 235 238 242 247 253 257 261 265 270 278 291 308 325 337
335 336 335 334 332 327 321 316 310 306 302 299 295 292 297 284 281 286 287 284 277 266 252 239 231 226 224 224 227 231 235 240 241 247 250 253 255 259 263 267 274 285 300 315
334 333 333 331 330 329 326 319 313 305 298 292 288 283 278 278 276 276 276 274 268 260 253 241 233 227 226 228 229 233 236 240 243 245 248 250 251 253 257 261 268 275 281 291
336 334 334 332 330 327 324 322 319 310 301 292 285 280 273 272 270 269 267 265 262 256 250 241 235 232 232 234 235 239 241 242 244 247 246 245 249 251 254 259 264 269 274 279
337 336 335 333 332 329 324 321 317 313 309 299 289 281 275 273 270 267 264 263 257 249 246 243 240 238 241 240 241 243 245 245 245 246 246 248 249 251 254 257 261 264 269 273
338 337 336 335 333 330 327 324 319 314 308 305 300 289 278 271 267 263 260 257 253 248 246 245 243 242 245 246 247 248 248 248 247 247 248 248 250 252 255 258 260 263 265 267
337 337 336 336 335 332 329 326 322 318 313 306 300 293 287 278 270 262 258 255 252 250 249 248 244 244 247 247 249 250 250 250 249 249 250 251 252 254 256 258 260 262 262 264
337 337 337 337 337 335 332 331 325 321 317 310 303 297 287 280 275 265 260 256 255 252 249 247 247 243 246 251 250 251 250 250 251 252 252 253 254 255 257 259 259 260 261 263
337 337 337 338 337 337 337 334 332 327 320 313 307 299 290 281 275 270 265 255 249 254 248 247 245 246 250 253 252 251 251 252 252 253 254 255 256 256 256 256 258 260 263 266
337 337 338 339 339 338 336 334 333 328 324 317 309 300 293 284 273 269 263 254 252 251 254 256 255 253 253 252 251 251 251 252 252 253 252 252 253 255 256 258 260 263 266 269
338 338 339 339 338 338 336 334 332 329 323 318 311 304 294 284 275 268 263 261 258 257 257 257 258 257 253 251 250 248 247 246 246 247 250 253 256 258 260 262 265 268 271 273
338 340 340 340 340 339 338 336 334 331 328 321 316 309 299 290 281 273 268 264 261 258 257 257 256 255 251 247 243 239 240 242 246 250 254 257 260 263 265 268 270 272 274 276